Regional Weather Roundup
Issued by NWS Sioux Falls, SD

Home | Current Version | Previous Version | Graphics & Text | Print | Product List | Glossary On
Versions: 1 2 3 4 5 6 7 8 9 10 11 12 13 14 15 16 17 18 19 20 21 22 23 24 25 26 27 28 29 30 31 32 33 34 35 36 37 38 39 40 41 42 43 44 45 46 47 48 49 50
000
ASUS43 KFSD 252202
RWRFSD

WEATHER ROUNDUP FOR SE SOUTH DAKOTA/SW MINNESOTA/NW IOWA
NATIONAL WEATHER SERVICE SIOUX FALLS SD
500 PM CDT MON MAY 25 2015

NOTE: "FAIR" INDICATES FEW OR NO CLOUDS BELOW 12,000 FEET WITH NO
SIGNIFICANT WEATHER AND OR OBSTRUCTIONS TO VISIBILITY.


SDZ038>040-050-052>070-252300-
SOUTHEAST SOUTH DAKOTA

CITY           SKY/WX    TMP DP  RH WIND       PRES   REMARKS
BROOKINGS      PTSUNNY   63  55  77 NW12      29.78F
CHAMBERLAIN    CLOUDY    62  56  79 NE10      29.80R
HURON          CLOUDY    66  54  65 NE14      29.80R
MADISON        MOCLDY    64  64 100 NW8       29.80R
MITCHELL       PTSUNNY   67  58  72 N9        29.79R
SIOUX FALLS    TSTM      68  59  73 NW9       29.76S
WINNER         CLOUDY    62  56  80 CALM      29.81R
YANKTON        MOSUNNY   68  54  60 NW21G33   29.75R
$$

MNZ071-072-080-081-089-090-097-098-252300-
SOUTHWEST MINNESOTA

CITY           SKY/WX    TMP DP  RH WIND       PRES   REMARKS
FAIRMONT       PTSUNNY   75  55  50 SW21      29.74F
JACKSON        CLOUDY    72  61  68 SW10G20   29.75F
LUVERNE        PTSUNNY   73  59  60 W13       29.76S
MARSHALL       PTSUNNY   70  54  56 W17G23    29.75S
MONTEVIDEO     PTSUNNY   70  57  64 NW10G16   29.74S
REDWOOD FALLS  MOSUNNY   71  59  65 W13       29.73F
TRACY          CLOUDY    69  60  70 W9        29.75S
WINDOM         MOSUNNY   73  57  56 W16G25    29.75S
WORTHINGTON    PTSUNNY   72  57  60 SW12      29.76S
$$

IAZ001>003-012>014-020>022-031-032-NEZ013-014-SDZ071-252300-
NORTHWEST IOWA

CITY           SKY/WX    TMP DP  RH WIND       PRES   REMARKS
DENISON        MOSUNNY   77  57  50 SW15      29.76F
ESTHERVILLE    MOSUNNY   76  57  51 SW17G25   29.74F
SIOUX CITY     PTSUNNY   80  55  42 SW22      29.75F
SPENCER          N/A     79  56  45 SW20      29.75F
$$

ABBREVIATIONS USED IN REMARKS
   TC - TEMPERATURE IN CELSIUS
  WCI - WIND CHILL INDEX
   HX - HEAT INDEX
  VSB - VISIBILITY



USA.gov is the U.S. government's official web portal to all federal, state and local government web resources and services.